UPSVAC Airport Information Service

Denver International Airport

ICAO: KDEN Country: United States
Latitude: 39.8616 Longitude: -104.673
Latest Arrival : UPSJUMP (KRFD-KDEN) Latest Departure : UPS1827 (KDEN-KPHX)


WX CaptureLIVE
Data provided by noaa.gov | Fetched at 00:42:58

METAR : KDEN 142353Z 00000KT 10SM FEW100 FEW220 36/04 A3012 RMK AO2 SLP105 T03610044 10367 20283 56009

TAF : KDEN 142321Z 1500/1606 08007KT P6SM FEW120 FM150200 14010KT P6SM FEW120 FM150600 20010KT P6SM SKC FM151300 23006KT P6SM SKC FM151800 07008KT P6SM FEW120 FM160200 18013KT P6SM FEW120


Runway Data for KDEN
Data provided by openaviationdata.com

Runway ID Mag Var Hdg Length Elevation Surface ILS Freq ILS Id ILS Slope
7 11 79° 11980 ft 5324 ft Concrete 111.55 IDZG 3
8 11 79° 11980 ft 5324 ft Concrete 108.9 IFUI 3
16L 11 169° 12007 ft 5324 ft Concrete 111.1 ILTT 3
16R 11 169° 16011 ft 5324 ft Concrete 111.9 IDQQ 3
17L 11 169° 12008 ft 5324 ft Concrete 110.15 IBXP 3
17R 11 169° 12007 ft 5324 ft Concrete 108.5 IACX 3
25 11 259° 11980 ft 5324 ft Concrete 111.55 IERP 3
26 11 259° 11980 ft 5324 ft Concrete 108.9 IJOY 3
34L 11 349° 16011 ft 5324 ft Concrete 111.9 IDXU 3
34R 11 349° 12007 ft 5324 ft Concrete 111.1 IOUF 3
35L 11 349° 12007 ft 5324 ft Concrete 108.5 IAQD 3
35R 11 349° 12008 ft 5324 ft Concrete 110.15 IDPP 3

Denver International Airport, United States
Use only for reference purposes



Not for navigational purposes.